Vorticity
7 3 6 12 5 5 6 11 10 11 9 8 7 7 7 5 5 4 3 4 3 2 2 4 4 3 3
2 11 10 4 6 10 11 11 8 6 6 7 6 4 5 3 1 1 2 6 12 19 24 30 27 34 38
7 7 7 9 11 9 8 5 6 8 6 4 5 5 4 4 16 46 55 62 56 47 44 39 33 31 28
8 7 10 9 9 5 7 7 7 5 3 3 5 10 30 62 40 16 8 6 4 4 5 5 7 9 11
11 12 10 5 8 7 6 6 4 3 5 25 50 48 20 7 8 9 9 8 6 7 7 8 9 10 11
12 7 6 7 6 5 4 4 4 17 41 50 10 4 6 6 9 14 17 20 21 20 18 16 14 11 7
8 6 6 5 4 5 5 8 36 53 17 6 5 8 22 35 28 20 18 19 18 19 20 23 27 29 28
3 6 4 5 5 6 21 55 25 7 7 9 29 36 22 20 16 21 24 29 32 32 31 33 31 29 33
4 4 5 6 12 38 44 11 7 7 11 39 23 19 22 16 15 10 13 12 16 21 26 30 32 36 30
5 7 11 23 55 29 7 8 8 20 23 16 10 19 13 18 17 11 17 13 16 13 13 14 14 18 18
17 22 45 49 13 9 7 6 6 22 14 15 19 14 16 18 15 3 11 22 26 27 27 30 31 28 29
39 55 28 10 9 6 7 6 19 14 13 25 3 6 8 13 8 7 7 4 13 18 19 15 15 21 24
37 11 11 9 7 9 8 9 18 14 15 15 5 7 8 7 12 13 16 4 4 4 3 15 19 18 25
10 8 9 9 8 7 10 10 15 15 19 14 5 8 10 10 9 15 15 24 16 0 9 13 8 11 14
9 10 11 10 10 7 11 12 14 11 13 15 9 10 11 12 15 6 13 21 25 13 23 15 -1 -4 11
9 12 13 11 6 8 11 13 13 12 17 16 9 8 11 16 11 14 13 21 18 13 4 13 12 2 16
12 12 12 12 6 5 13 11 10 11 15 17 12 9 12 14 14 13 14 14 10 3 15 7 9 9 0
Height
5652 5645 5639 5632 5626 5620 5615 5608 5602 5594 5588 5583 5578 5572 5566 5561 5554 5548 5542 5537 5531 5525 5520 5517 5514 5512 5511
5636 5629 5623 5615 5610 5604 5597 5590 5582 5574 5567 5561 5554 5546 5539 5531 5524 5515 5508 5500 5493 5487 5484 5480 5478 5475 5473
5620 5612 5606 5598 5592 5585 5579 5571 5562 5553 5544 5536 5528 5518 5507 5496 5486 5477 5468 5461 5456 5453 5450 5448 5446 5444 5443
5602 5595 5587 5580 5573 5568 5563 5552 5544 5531 5521 5511 5498 5486 5472 5461 5455 5448 5442 5438 5435 5432 5430 5428 5425 5424 5423
5584 5577 5569 5562 5556 5549 5542 5534 5522 5507 5499 5484 5470 5457 5446 5441 5434 5426 5419 5414 5410 5408 5406 5405 5404 5404 5403
5568 5560 5552 5545 5538 5530 5521 5511 5503 5482 5475 5462 5448 5442 5432 5423 5412 5402 5393 5385 5380 5377 5376 5377 5378 5379 5380
5550 5541 5535 5525 5520 5510 5498 5487 5475 5459 5453 5453 5434 5428 5414 5402 5390 5379 5370 5362 5356 5352 5350 5351 5351 5352 5354
5530 5523 5515 5506 5497 5488 5476 5466 5457 5446 5435 5437 5418 5409 5398 5387 5375 5365 5354 5345 5339 5335 5333 5333 5331 5331 5331
5511 5503 5494 5484 5474 5466 5456 5451 5446 5434 5419 5415 5404 5397 5387 5377 5366 5356 5346 5337 5329 5324 5321 5318 5317 5316 5316
5487 5479 5472 5461 5453 5447 5443 5438 5430 5423 5408 5405 5395 5386 5384 5370 5359 5349 5340 5331 5324 5318 5313 5309 5308 5306 5307
5466 5457 5449 5443 5439 5435 5430 5424 5416 5406 5397 5393 5386 5378 5371 5366 5354 5343 5335 5327 5319 5312 5306 5301 5298 5296 5295
5447 5442 5437 5434 5430 5425 5418 5410 5402 5396 5388 5382 5377 5369 5363 5357 5349 5339 5329 5322 5316 5310 5303 5297 5291 5288 5285
5435 5433 5431 5426 5421 5414 5407 5400 5391 5384 5377 5372 5367 5360 5352 5346 5341 5332 5326 5318 5310 5306 5300 5295 5290 5285 5282
5428 5426 5422 5417 5412 5407 5400 5393 5385 5376 5368 5363 5358 5351 5344 5337 5330 5323 5316 5312 5306 5300 5297 5292 5288 5285 5282
5423 5419 5414 5409 5404 5398 5392 5385 5377 5371 5364 5356 5349 5342 5334 5326 5322 5313 5308 5302 5297 5293 5290 5287 5284 5282 5280
5417 5412 5407 5402 5397 5391 5385 5378 5372 5364 5357 5350 5344 5337 5327 5317 5306 5304 5300 5295 5292 5288 5284 5283 5280 5272 5272
5410 5405 5400 5395 5391 5385 5378 5372 5365 5358 5350 5342 5336 5329 5323 5318 5307 5289 5291 5289 5286 5283 5279 5276 5274 5270 5266